Temp
20 21 21 21 19 17 18 21 23 24 26 28 28 28 26 26 25 23 29 28 28 27 27 26 25 25 24 24 24 24 24 24 23 22 22 22 21 21 20 20 19 19 18 18 18 17 17 17 17
20 20 20 20 18 17 18 22 24 25 27 27 28 28 26 26 27 28 28 28 28 28 28 27 26 25 24 24 24 24 24 24 23 22 22 22 21 21 20 20 19 19 18 18 17 17 17 17 16
20 20 20 18 17 18 20 23 25 26 27 28 29 28 28 27 27 28 28 28 28 28 27 27 26 25 25 25 25 24 24 24 23 23 22 22 21 21 21 20 20 19 18 17 17 16 16 16 16
20 20 19 18 19 20 22 24 25 24 28 28 28 26 27 28 28 28 28 28 28 28 27 27 27 26 25 25 25 24 24 24 23 23 22 22 22 21 21 20 20 19 18 18 17 16 16 16 15
20 19 17 18 19 21 23 24 25 24 26 28 28 26 28 28 28 28 29 29 29 28 27 27 26 26 25 25 25 24 24 24 24 23 22 22 22 21 21 20 20 19 18 17 17 16 16 16 15
19 19 16 17 20 22 24 26 26 25 26 27 27 26 27 28 28 28 28 29 28 28 28 27 26 26 25 25 25 24 24 23 23 23 23 22 21 21 20 20 20 19 18 17 16 16 15 15 15
17 16 17 18 20 21 24 26 26 27 27 27 28 27 27 28 28 28 28 28 28 27 27 27 26 26 25 25 24 24 24 23 23 23 22 22 21 21 20 20 20 19 18 17 16 15 15 15 15
19 15 17 18 20 21 25 25 26 27 26 28 27 25 27 29 29 28 27 28 27 27 27 27 26 26 25 25 24 24 23 23 23 22 22 21 21 21 20 20 19 19 18 17 16 15 15 14 15
19 15 15 18 19 21 24 24 27 26 26 26 26 26 28 28 28 27 27 27 27 27 26 26 26 26 26 25 25 24 23 23 22 22 21 21 21 21 20 19 19 18 17 17 16 15 15 15 14
16 14 16 18 21 21 22 24 25 26 25 25 25 26 27 27 28 28 28 28 27 27 27 26 26 26 26 25 25 24 24 23 22 22 21 20 20 20 20 19 18 18 17 16 15 14 14 14 14
17 17 18 19 21 22 22 22 23 24 22 25 24 25 27 27 27 28 28 27 28 28 27 27 26 26 26 25 25 24 24 23 23 22 21 20 20 20 19 19 18 18 17 17 15 15 14 14 14
16 18 19 20 20 20 21 22 22 23 23 25 25 25 25 26 26 28 28 28 28 28 28 28 27 26 26 25 25 25 24 24 23 23 22 21 20 19 19 19 18 18 17 17 16 15 14 14 14
16 18 19 19 20 20 21 21 21 22 23 23 24 25 25 25 26 27 27 28 28 27 28 27 28 27 27 25 25 25 25 24 24 23 23 22 20 19 19 18 18 18 17 17 15 15 14 14 14
17 18 18 19 19 20 20 20 21 22 23 23 24 24 24 25 26 27 27 27 27 28 28 28 27 27 27 26 26 25 25 24 24 23 23 22 21 19 19 18 18 18 17 16 15 14 14 13 13
17 15 17 17 18 18 21 20 20 22 22 23 23 24 25 25 26 27 27 27 27 27 28 27 28 28 27 26 26 26 26 25 24 23 23 22 21 20 18 18 18 18 16 16 15 14 13 13 13
16 15 15 18 18 19 20 18 22 23 23 23 24 25 25 25 26 26 27 27 27 27 27 27 27 28 28 27 26 26 26 25 25 24 23 22 21 20 19 18 17 17 16 15 14 14 13 13 13
13 13 13 16 18 19 19 19 21 22 23 23 23 24 25 25 26 26 26 27 27 27 28 28 27 27 28 28 26 26 26 25 24 24 23 22 20 19 18 17 16 16 15 15 14 14 13 13 13
13 13 15 16 18 18 18 18 20 22 22 21 22 23 23 24 24 26 26 27 27 27 28 28 27 27 28 27 26 25 25 24 23 23 21 21 19 18 17 15 16 15 15 14 14 13 13 13 13
14 14 14 16 17 17 18 18 19 19 20 21 22 22 22 23 25 25 26 26 27 27 28 28 27 27 27 27 26 25 25 24 23 21 20 20 18 18 16 16 15 14 14 14 13 13 13 13 12
13 12 13 14 16 16 16 16 17 18 19 20 21 21 22 24 25 26 27 27 27 27 27 28 27 27 27 26 26 25 25 23 21 19 19 18 18 17 16 16 15 15 14 14 13 13 12 12 12
12 12 13 13 15 16 16 16 17 19 19 20 20 21 22 23 24 26 26 27 27 26 27 27 27 27 26 26 25 24 22 20 19 18 18 18 17 16 16 16 15 14 14 14 13 13 12 12 12
11 14 14 14 14 13 17 14 18 19 19 19 20 21 22 24 25 26 26 27 27 27 26 25 26 26 26 26 25 23 22 20 19 18 17 17 16 16 15 15 14 14 14 13 13 12 12 12 12
12 14 13 14 13 13 14 12 16 17 17 19 20 21 22 24 25 26 26 27 27 27 26 25 25 26 25 25 22 20 19 19 18 17 17 15 15 15 15 14 14 14 13 13 13 13 12 12 11
14 14 13 13 12 10 14 13 16 17 17 18 18 20 22 24 25 26 26 26 26 26 25 24 24 24 23 22 20 19 19 18 17 17 16 16 15 14 14 14 14 14 13 13 13 13 12 12 11
13 10 9 9 9 11 14 14 16 17 17 18 18 20 23 24 24 24 24 24 25 23 22 22 22 22 20 19 19 18 18 18 17 16 16 16 15 16 15 14 14 13 13 13 12 13 12 12 11
10 10 8 10 10 12 15 14 15 17 18 20 21 21 22 22 23 22 21 21 21 20 20 20 20 20 18 17 17 17 17 17 17 17 16 16 15 15 15 14 13 13 13 13 13 13 12 12 12
12 10 12 11 12 11 12 14 17 19 20 19 18 20 21 21 20 19 19 19 18 19 19 19 18 17 17 17 16 16 16 16 16 16 15 15 15 14 14 14 13 13 13 13 12 12 12 12 12
12 12 11 8 11 11 12 13 15 17 18 18 18 17 19 18 17 17 18 18 18 18 17 17 17 16 16 16 16 16 16 16 16 15 15 15 14 14 13 13 13 13 13 12 12 12 12 12 13
11 10 10 11 10 10 11 12 14 18 17 17 19 19 18 16 16 17 17 17 17 16 16 16 16 16 16 16 16 16 15 15 15 15 15 14 14 13 13 13 13 13 13 13 12 12 12 13 13
11 11 10 8 11 10 11 13 17 19 17 17 16 17 16 16 16 16 16 16 16 15 15 15 16 16 16 15 15 15 15 14 14 14 14 13 13 13 13 13 13 13 13 13 13 12 12 13 13
Height
1504 1503 1504 1504 1515 1518 1522 1506 1490 1484 1481 1477 1475 1477 1481 1480 1483 1498 1480 1482 1484 1485 1487 1489 1491 1493 1495 1497 1498 1499 1499 1499 1499 1500 1501 1501 1502 1504 1504 1504 1505 1505 1505 1505 1505 1506 1506 1506 1508
1502 1503 1504 1504 1517 1530 1521 1493 1488 1479 1477 1474 1473 1474 1477 1479 1478 1476 1479 1481 1483 1484 1486 1487 1490 1492 1493 1495 1497 1498 1498 1499 1499 1499 1500 1501 1502 1503 1504 1503 1504 1503 1504 1505 1504 1505 1505 1505 1506
1501 1503 1505 1507 1513 1519 1510 1485 1480 1477 1475 1472 1470 1471 1472 1476 1477 1477 1477 1481 1482 1483 1485 1486 1488 1489 1491 1492 1494 1496 1497 1498 1499 1498 1499 1500 1501 1502 1502 1503 1503 1503 1503 1503 1504 1505 1505 1504 1505
1501 1502 1506 1510 1508 1498 1490 1483 1478 1476 1472 1471 1471 1473 1474 1475 1477 1477 1478 1479 1481 1482 1483 1484 1486 1487 1488 1490 1491 1492 1493 1495 1496 1497 1498 1499 1500 1501 1502 1502 1502 1502 1502 1502 1502 1504 1504 1504 1504
1500 1500 1510 1509 1499 1490 1485 1481 1481 1476 1472 1470 1470 1473 1473 1475 1477 1478 1477 1478 1479 1480 1482 1482 1484 1486 1487 1488 1489 1491 1491 1492 1493 1494 1496 1497 1498 1499 1500 1501 1502 1502 1502 1501 1501 1502 1502 1502 1502
1499 1501 1511 1509 1494 1484 1481 1479 1478 1470 1470 1472 1472 1471 1475 1474 1476 1476 1477 1478 1479 1480 1481 1481 1482 1483 1485 1486 1487 1488 1489 1491 1492 1491 1493 1495 1495 1496 1498 1499 1500 1501 1502 1502 1501 1501 1501 1501 1501
1497 1502 1503 1496 1491 1486 1477 1475 1470 1473 1475 1472 1469 1472 1474 1474 1476 1477 1478 1479 1480 1479 1480 1479 1479 1480 1482 1484 1485 1486 1487 1489 1491 1491 1492 1493 1493 1494 1496 1497 1498 1500 1501 1501 1500 1500 1500 1499 1499
1495 1496 1499 1493 1489 1489 1475 1473 1471 1472 1474 1473 1473 1473 1473 1473 1475 1476 1477 1478 1478 1477 1476 1477 1478 1479 1478 1480 1481 1482 1485 1487 1489 1490 1491 1492 1493 1494 1494 1495 1496 1498 1499 1500 1500 1500 1499 1497 1497
1491 1500 1502 1491 1487 1481 1475 1473 1465 1473 1474 1475 1476 1478 1474 1473 1474 1474 1473 1473 1473 1474 1474 1474 1475 1475 1475 1475 1476 1479 1482 1484 1486 1488 1490 1490 1490 1491 1493 1494 1495 1496 1498 1499 1499 1499 1498 1497 1496
1485 1495 1489 1477 1477 1479 1478 1480 1475 1470 1470 1469 1473 1474 1473 1475 1473 1471 1470 1469 1468 1469 1470 1469 1470 1470 1471 1472 1472 1474 1476 1478 1481 1483 1485 1486 1487 1489 1490 1492 1493 1494 1496 1496 1497 1497 1497 1496 1495
1478 1474 1475 1472 1475 1478 1481 1476 1481 1477 1471 1468 1465 1467 1467 1468 1471 1469 1466 1465 1465 1465 1466 1465 1466 1466 1466 1467 1467 1468 1470 1473 1475 1477 1480 1481 1484 1486 1487 1488 1490 1492 1493 1494 1494 1495 1495 1494 1494
1473 1465 1469 1469 1472 1475 1477 1477 1471 1471 1464 1464 1462 1462 1461 1463 1463 1463 1461 1460 1460 1459 1458 1460 1461 1461 1460 1461 1462 1463 1464 1466 1469 1470 1473 1475 1478 1482 1484 1485 1486 1488 1489 1490 1491 1492 1492 1492 1492
1464 1460 1465 1467 1468 1469 1473 1469 1464 1458 1462 1460 1457 1455 1456 1458 1456 1455 1454 1454 1455 1454 1454 1454 1454 1454 1454 1454 1455 1457 1457 1460 1462 1463 1465 1468 1472 1477 1480 1482 1483 1484 1486 1486 1487 1488 1489 1489 1490
1456 1456 1459 1462 1465 1466 1468 1461 1461 1449 1450 1453 1452 1451 1452 1450 1449 1448 1448 1448 1448 1448 1449 1450 1448 1447 1447 1447 1447 1449 1452 1454 1455 1457 1459 1463 1466 1474 1477 1479 1480 1481 1481 1483 1484 1484 1485 1485 1486
1453 1457 1455 1455 1462 1463 1464 1451 1441 1447 1448 1444 1442 1441 1441 1441 1442 1441 1440 1439 1440 1440 1441 1441 1441 1440 1440 1440 1440 1443 1445 1448 1449 1451 1454 1458 1461 1468 1473 1475 1476 1477 1478 1479 1479 1480 1481 1481 1482
1454 1456 1459 1446 1455 1457 1465 1427 1433 1439 1441 1438 1438 1437 1436 1434 1434 1434 1435 1433 1433 1432 1432 1432 1433 1433 1432 1432 1434 1436 1439 1442 1444 1446 1448 1454 1459 1463 1468 1469 1470 1473 1474 1475 1476 1477 1477 1478 1478
1457 1459 1454 1453 1445 1450 1452 1410 1430 1436 1437 1432 1433 1433 1429 1427 1427 1428 1429 1427 1426 1424 1422 1421 1423 1424 1425 1425 1426 1432 1434 1436 1438 1439 1442 1449 1455 1456 1462 1465 1470 1471 1471 1472 1472 1473 1473 1474 1474
1452 1451 1450 1450 1444 1443 1441 1423 1428 1431 1430 1428 1427 1425 1422 1420 1419 1421 1420 1419 1418 1416 1414 1413 1412 1416 1418 1419 1423 1425 1427 1429 1431 1434 1439 1447 1449 1457 1459 1462 1467 1469 1468 1469 1469 1470 1470 1469 1469
1446 1451 1453 1445 1440 1442 1434 1429 1428 1428 1424 1421 1417 1415 1413 1412 1414 1414 1412 1410 1410 1409 1408 1406 1406 1408 1411 1413 1415 1417 1419 1421 1425 1430 1438 1442 1447 1452 1453 1459 1462 1464 1465 1466 1466 1466 1465 1464 1464
1448 1452 1454 1450 1446 1446 1435 1434 1426 1422 1417 1412 1409 1407 1408 1407 1407 1406 1404 1403 1403 1402 1402 1400 1400 1402 1404 1406 1409 1410 1413 1416 1422 1428 1434 1439 1444 1448 1451 1454 1458 1461 1462 1462 1462 1461 1460 1460 1460
1447 1450 1453 1457 1448 1438 1438 1423 1420 1409 1408 1403 1400 1400 1400 1400 1399 1398 1397 1396 1395 1395 1395 1395 1397 1398 1399 1402 1405 1408 1410 1414 1419 1425 1430 1436 1441 1446 1449 1452 1455 1458 1458 1458 1458 1457 1456 1456 1456
1448 1445 1447 1449 1454 1458 1438 1434 1407 1400 1393 1394 1392 1392 1392 1389 1392 1391 1389 1388 1386 1386 1386 1388 1391 1392 1393 1397 1400 1402 1406 1411 1414 1420 1428 1434 1439 1443 1447 1450 1452 1454 1455 1454 1454 1453 1453 1453 1454
1440 1438 1442 1445 1450 1451 1447 1457 1384 1386 1390 1383 1383 1384 1382 1382 1383 1384 1382 1379 1377 1376 1375 1377 1382 1386 1389 1392 1395 1401 1406 1412 1415 1421 1425 1432 1437 1441 1445 1448 1449 1450 1451 1451 1451 1451 1451 1451 1451
1431 1433 1439 1445 1453 1461 1440 1447 1369 1388 1383 1379 1376 1375 1375 1375 1376 1376 1374 1372 1369 1368 1370 1373 1377 1382 1386 1391 1396 1401 1406 1412 1416 1421 1424 1430 1435 1440 1443 1445 1446 1447 1447 1448 1448 1448 1449 1449 1449
1431 1444 1458 1464 1464 1442 1419 1428 1378 1379 1374 1375 1374 1372 1371 1372 1371 1369 1367 1366 1365 1366 1369 1374 1377 1381 1387 1392 1398 1403 1408 1412 1416 1421 1426 1431 1435 1438 1440 1442 1443 1443 1444 1445 1446 1447 1448 1448 1447
1433 1438 1450 1445 1447 1433 1417 1412 1386 1368 1365 1362 1363 1363 1365 1366 1366 1365 1364 1365 1366 1369 1374 1377 1381 1383 1389 1395 1400 1404 1409 1414 1418 1423 1427 1431 1434 1436 1438 1439 1439 1441 1442 1444 1444 1445 1446 1446 1446
1426 1435 1427 1437 1429 1436 1415 1390 1374 1361 1357 1358 1357 1358 1359 1360 1361 1362 1363 1367 1370 1373 1378 1379 1383 1387 1393 1398 1402 1406 1411 1414 1419 1424 1428 1431 1432 1434 1435 1436 1438 1440 1441 1443 1443 1444 1444 1444 1444
1423 1423 1434 1441 1439 1434 1411 1399 1382 1364 1360 1357 1355 1351 1352 1355 1358 1362 1365 1370 1373 1376 1380 1383 1387 1391 1396 1400 1405 1409 1412 1416 1420 1424 1427 1429 1431 1432 1434 1436 1438 1440 1441 1442 1442 1442 1442 1441 1442
1424 1426 1426 1425 1428 1427 1417 1393 1364 1360 1363 1359 1347 1343 1346 1351 1357 1362 1367 1371 1375 1378 1382 1386 1390 1394 1399 1404 1408 1411 1414 1418 1421 1424 1426 1429 1431 1432 1434 1436 1438 1440 1441 1441 1440 1440 1440 1440 1440
1418 1419 1423 1432 1422 1419 1414 1381 1351 1355 1359 1356 1344 1340 1346 1354 1359 1364 1368 1372 1376 1380 1385 1389 1393 1398 1403 1407 1410 1413 1416 1419 1422 1424 1426 1429 1431 1433 1435 1437 1438 1439 1439 1438 1438 1437 1437 1438 1438
Wind_Speed
5 4 4 3 3 5 4 6 3 6 2 2 5 5 5 2 5 5 19 19 13 16 22 25 24 21 16 14 12 10 9 8 9 9 7 7 6 5 4 4 3 2 1 3 4 4 5 5 6
6 6 5 2 3 2 5 4 8 3 6 2 10 10 4 2 3 14 21 20 16 10 11 14 24 21 18 16 14 13 11 10 10 9 6 5 4 4 4 4 3 3 1 1 3 3 4 5 5
7 7 2 3 3 5 5 3 2 10 20 8 2 7 8 4 8 21 19 18 11 8 12 19 24 23 21 19 18 16 14 13 12 10 7 5 4 3 3 3 3 2 1 1 3 4 5 5 5
8 3 1 2 7 5 5 3 5 7 13 5 2 5 3 7 19 13 17 12 11 10 14 17 21 25 24 22 22 20 18 17 15 12 10 8 4 3 2 4 4 3 2 2 3 5 6 7 7
11 4 1 3 5 4 4 10 15 5 4 2 1 4 5 9 12 11 12 9 6 8 12 14 19 27 27 25 24 23 21 20 18 16 14 11 8 5 2 2 5 5 4 4 4 5 7 8 10
3 2 1 5 5 2 3 11 9 4 4 7 2 2 1 9 14 14 8 4 7 8 8 16 19 28 29 27 27 26 25 24 22 19 17 15 12 8 5 1 4 6 5 5 6 7 8 11 12
4 3 5 4 3 5 4 6 1 3 5 7 4 2 1 7 14 13 10 11 12 15 17 19 20 24 30 31 30 29 27 25 25 23 21 18 14 12 9 5 3 5 6 5 6 8 9 10 11
7 4 2 5 3 5 4 6 3 10 6 18 2 2 3 4 13 13 18 18 19 21 20 21 24 25 29 34 33 31 30 29 28 27 24 20 18 15 12 9 6 6 6 6 5 5 7 9 11
9 2 5 5 6 3 6 7 33 19 23 20 19 17 10 3 11 21 24 24 24 25 26 28 28 29 31 33 35 35 33 32 31 30 28 24 24 20 16 12 9 7 7 7 6 6 7 6 7
6 5 10 7 6 2 6 5 24 23 28 23 20 21 12 13 11 14 18 24 29 29 28 32 34 32 34 36 39 39 37 37 36 35 33 31 28 23 19 15 12 10 9 8 8 8 8 7 7
7 12 8 7 15 17 5 15 13 8 12 31 20 22 26 28 24 18 14 15 23 24 27 29 32 34 36 39 40 43 43 40 39 39 38 36 32 28 24 20 16 13 13 11 10 10 11 10 9
6 11 19 17 19 16 13 18 20 24 30 33 31 33 31 34 32 25 23 24 23 25 28 25 28 32 35 40 43 44 45 44 42 42 42 40 37 32 28 23 19 16 15 14 13 12 12 12 11
15 13 16 20 24 24 23 24 27 31 30 33 34 36 37 33 33 31 30 26 23 26 28 30 30 32 33 39 43 45 44 46 46 45 44 43 41 36 30 26 21 18 18 17 14 14 14 14 14
2 3 18 21 23 21 14 24 27 34 36 32 33 30 30 35 35 33 29 32 38 38 37 34 37 36 35 35 38 40 44 45 49 49 48 45 42 36 32 27 23 20 21 17 16 16 15 17 17
17 12 12 15 4 6 10 24 29 27 32 35 36 38 37 38 34 37 41 44 45 44 42 38 34 31 38 40 36 36 40 44 48 49 49 46 42 35 32 28 24 21 18 18 19 17 18 18 19
2 4 13 14 14 9 8 36 14 9 19 30 33 34 34 41 43 45 46 42 44 46 46 42 40 35 34 31 37 36 38 39 41 44 47 43 38 32 31 27 23 19 16 18 18 18 18 18 21
5 7 9 2 7 9 19 39 16 26 25 30 30 35 43 43 42 42 47 50 47 43 45 41 39 40 31 31 31 33 33 36 36 43 44 34 30 28 27 25 19 16 16 16 18 17 17 20 23
10 13 1 3 4 11 17 29 18 19 20 20 28 36 38 40 45 52 45 47 48 40 34 35 31 34 29 30 28 34 37 41 44 42 34 28 28 24 26 20 16 17 16 15 16 17 20 22 21
10 4 1 2 5 8 17 22 19 14 25 28 37 38 39 37 42 46 45 45 39 30 28 29 26 29 30 30 31 36 37 41 42 37 26 26 24 24 23 18 17 18 16 15 15 19 21 22 18
8 9 11 6 11 6 13 13 15 14 17 24 29 31 32 41 38 37 34 26 30 32 29 27 24 26 32 33 33 37 38 39 35 28 24 23 23 22 19 16 19 17 16 16 18 20 20 19 15
6 6 5 7 11 19 16 21 17 20 19 29 32 33 33 36 38 38 36 36 34 32 32 30 29 24 29 32 36 38 34 29 28 26 25 24 23 19 17 17 17 17 16 18 18 20 19 14 12
17 5 7 4 4 8 2 18 25 18 23 16 23 24 29 39 39 37 32 35 33 34 30 28 28 26 28 28 35 38 33 28 28 28 27 28 21 22 21 18 16 15 16 18 19 13 11 12 12
6 11 8 13 11 4 7 5 15 7 13 22 20 29 40 45 41 37 34 34 38 38 36 22 24 26 25 27 30 28 25 26 25 24 21 22 18 21 17 17 17 15 18 16 11 10 10 10 11
5 3 10 9 3 7 12 10 25 10 12 10 10 22 29 27 25 31 34 38 28 21 14 18 22 21 18 16 17 20 21 26 26 23 21 16 18 20 18 15 15 16 11 8 8 6 6 7 7
4 5 1 2 4 11 7 14 21 4 5 6 7 18 26 26 27 27 26 15 12 9 13 16 15 14 13 13 14 15 20 23 21 20 17 18 18 13 14 14 14 10 7 6 5 5 7 6 5
7 8 4 6 5 5 10 11 8 9 12 24 25 30 27 28 26 17 10 8 11 15 15 16 16 16 16 17 18 18 19 19 18 16 16 15 14 12 11 9 7 6 6 5 5 7 8 8 6
1 4 7 4 5 1 5 7 9 13 20 14 13 17 20 17 14 12 12 15 18 17 17 15 17 20 19 19 19 18 18 17 17 16 15 13 11 9 6 6 6 5 3 3 4 5 7 7 7
5 3 3 1 4 5 5 6 10 5 8 6 7 11 18 17 16 17 20 21 19 18 18 19 20 21 21 20 21 20 19 18 17 15 11 9 8 6 7 8 6 5 4 4 6 7 8 7 7
2 2 3 4 5 3 3 6 6 9 8 11 16 15 20 25 25 25 25 22 21 21 22 23 25 25 24 21 19 18 16 14 12 10 10 9 7 7 10 9 5 3 4 6 9 10 9 8 7
0 4 4 3 6 5 3 8 8 3 7 10 16 10 23 27 30 28 27 24 24 26 28 29 26 24 20 17 15 14 11 10 9 11 11 9 9 8 10 8 3 5 6 8 13 13 11 8 9
Wind_Direction
209 180 153 143 51 70 269 262 255 299 153 205 69 153 185 183 179 205 160 172 166 188 185 190 192 191 187 185 183 178 169 158 155 150 138 127 115 106 108 99 111 134 216 226 227 236 246 245 244
195 155 154 119 109 114 262 235 232 268 306 169 134 91 97 255 202 147 163 176 178 168 182 194 197 195 194 195 195 195 188 185 178 168 162 149 130 108 78 68 66 76 123 227 231 227 235 249 249
176 164 179 157 180 177 221 225 289 327 302 304 104 102 132 178 224 159 162 168 160 160 194 197 202 202 203 206 205 204 199 199 197 187 184 181 148 107 60 36 38 42 53 196 225 233 233 234 246
170 165 233 162 229 242 225 283 320 309 303 281 332 74 58 167 164 158 153 155 170 173 190 200 210 209 210 213 209 208 206 206 207 202 198 195 171 133 65 11 355 350 329 287 254 243 244 241 244
165 149 239 246 237 231 249 279 281 284 261 288 248 176 132 188 187 181 173 177 185 192 195 204 215 214 215 216 215 215 213 212 213 211 208 203 193 183 158 15 342 331 312 293 276 263 260 259 258
161 172 128 236 238 150 270 243 259 333 309 302 208 72 96 209 227 200 211 226 219 227 224 217 217 218 221 222 222 220 218 217 218 216 214 211 205 200 205 230 329 321 310 300 292 282 273 269 266
152 121 226 233 266 337 257 287 243 4 338 328 249 239 241 213 200 204 232 240 238 232 231 225 216 222 224 226 226 224 224 224 225 224 222 218 214 213 215 227 281 303 308 306 307 293 282 273 267
201 129 263 250 203 266 258 305 52 2 353 347 76 210 217 199 226 236 233 235 234 235 237 239 227 227 229 227 228 229 228 229 229 229 228 224 224 225 224 229 249 274 289 291 299 298 297 281 276
195 118 215 240 181 216 320 19 284 289 303 300 305 321 202 241 229 236 234 231 234 240 242 237 235 234 232 232 232 230 231 231 232 233 232 229 229 229 231 235 247 260 272 273 282 297 310 297 287
178 183 217 209 207 96 319 252 257 285 287 285 274 285 268 289 279 242 235 237 238 239 242 237 236 238 237 234 233 230 231 230 231 233 233 232 233 234 236 239 246 253 257 265 275 279 291 290 302
202 224 208 240 241 263 249 273 255 279 259 257 267 279 284 296 289 274 261 262 251 255 257 245 239 239 241 239 238 234 231 233 234 236 235 237 236 235 235 239 245 253 252 265 269 272 279 279 287
253 212 221 245 256 262 261 273 264 236 249 259 272 282 286 291 289 281 298 298 282 284 282 259 244 238 239 240 241 237 236 235 236 239 238 238 237 236 238 240 245 251 252 261 261 268 271 273 278
240 240 237 249 260 261 270 260 260 264 260 270 274 277 281 280 283 293 298 290 287 299 280 265 270 259 250 240 240 239 244 239 240 239 240 241 240 237 240 241 245 251 255 256 256 266 272 280 276
200 195 248 249 253 266 267 271 266 263 272 270 270 268 272 279 284 289 285 287 294 295 292 280 274 274 256 250 246 243 244 243 241 241 242 241 242 239 241 243 245 254 253 257 261 264 274 278 276
266 282 282 252 194 239 292 274 253 260 266 271 275 284 282 278 281 281 286 290 293 290 290 279 273 275 261 259 251 243 244 245 243 243 244 243 242 242 242 245 247 245 251 263 259 259 268 276 282
213 169 243 250 231 214 188 256 244 254 254 258 266 270 274 278 278 282 288 290 288 287 282 284 271 271 265 266 252 238 240 245 249 249 247 244 243 242 239 238 231 236 251 261 262 266 272 274 273
236 241 223 290 201 205 202 257 262 263 264 265 269 270 271 274 275 277 284 285 287 287 288 282 274 264 271 261 244 237 240 243 245 246 248 241 236 229 229 222 223 238 252 261 262 266 279 276 274
221 230 59 169 223 211 230 252 253 252 258 272 274 273 273 278 279 282 285 285 291 288 284 278 264 259 260 252 232 234 238 243 243 245 244 234 231 221 222 217 229 237 249 259 263 274 282 282 285
297 323 334 301 244 229 233 253 264 261 256 254 258 261 262 267 278 285 285 285 285 272 278 276 260 248 250 235 232 233 238 241 241 242 233 228 219 225 223 213 225 237 255 271 270 278 285 284 281
255 269 271 286 276 274 287 289 291 272 261 258 260 263 267 277 279 282 290 283 273 273 270 262 243 241 241 233 235 234 238 238 239 235 222 217 216 222 206 211 226 243 263 271 282 286 286 284 274
240 230 257 258 297 291 297 291 274 269 255 262 261 262 267 270 272 281 282 281 279 274 258 251 256 250 238 239 237 235 236 235 224 216 212 204 205 213 215 225 226 247 268 278 279 285 280 277 265
254 234 260 273 213 257 183 289 274 261 256 249 252 256 262 266 274 277 278 286 288 286 282 260 245 237 234 235 236 235 233 217 210 205 191 193 199 204 208 216 233 255 274 276 281 267 265 264 257
263 226 232 225 249 276 242 282 277 200 246 246 253 251 256 266 268 271 278 286 286 283 283 260 235 223 230 234 231 226 223 211 196 186 197 190 183 191 206 223 242 261 272 270 251 257 260 262 259
254 241 223 232 169 248 230 220 272 239 238 235 232 248 258 261 270 280 280 282 281 275 259 222 212 215 218 220 216 213 209 198 179 182 185 181 182 194 209 228 248 262 257 238 245 238 256 259 258
168 85 213 140 194 231 244 202 242 290 277 247 262 269 267 274 285 280 277 273 259 220 188 188 182 174 173 175 177 180 192 196 195 185 188 189 196 216 231 245 259 242 233 238 237 243 253 263 273
187 169 184 184 190 237 235 238 252 232 240 257 265 261 265 267 269 254 235 201 168 158 154 154 155 155 155 156 161 172 183 183 180 185 190 199 205 220 242 253 222 225 226 245 239 253 258 256 259
230 176 205 3 229 199 245 283 289 270 269 262 258 256 247 233 222 205 175 161 153 148 155 155 151 146 150 159 162 168 172 171 175 181 183 194 218 227 230 209 194 209 198 207 240 253 272 257 244
177 214 145 96 237 241 259 251 232 303 265 307 251 228 221 199 182 169 157 156 152 151 147 147 148 147 152 156 156 156 158 167 175 180 191 201 213 210 190 168 166 178 214 253 271 275 273 254 237
158 241 222 184 211 228 290 255 211 229 288 290 291 238 201 176 168 162 156 154 151 149 150 150 149 149 150 151 151 152 158 169 178 188 188 185 173 160 155 154 159 190 260 283 283 282 267 248 231
65 211 167 180 237 249 247 259 289 304 321 304 296 193 168 169 163 160 155 154 152 149 151 152 152 153 155 154 151 154 165 171 178 190 183 175 160 159 169 165 193 270 278 285 289 282 255 243 230